Location: Unspecified
(0.0000°N, 0.0000°E)
Time: 18:13:32
(UTC+00:00)

A-11 Canister half - Visible Passes

Search period start: 01 August 2015 00:00
Search period end: 11 August 2015 00:00
Orbit: 1517 x 1683 km, 47.2° (Epoch: 30 July)

Date Brightness Start Highest point End Pass type
(mag) Time Alt. Az. Time Alt. Az. Time Alt. Az.
01 Aug 9.8 20:30:28 10° NNW 20:37:52 34° NNE 20:37:52 34° NNE visible
01 Aug 11.1 22:34:43 10° WNW 22:36:04 15° WNW 22:36:04 15° WNW visible
02 Aug 9.8 20:07:45 10° NNW 20:16:09 32° NE 20:16:24 32° NE visible
02 Aug 10.7 22:11:39 10° NW 22:14:37 22° WNW 22:14:37 22° WNW visible
03 Aug 9.8 19:45:04 10° N 19:53:11 30° NE 19:55:00 28° ENE visible
03 Aug 10.3 21:48:37 10° NW 21:53:13 31° WNW 21:53:13 31° WNW visible
04 Aug 10.0 19:22:23 10° N 19:30:13 27° NE 19:33:39 23° ENE visible
04 Aug 9.8 21:25:36 10° NW 21:31:53 43° WNW 21:31:53 43° WNW visible
05 Aug 10.2 18:59:45 10° N 19:07:13 25° NE 19:12:23 17° E visible
05 Aug 9.3 21:02:36 10° NW 21:10:37 59° WNW 21:10:37 59° WNW visible
06 Aug 10.3 18:37:08 10° N 18:44:14 23° NE 18:51:10 11° E visible
06 Aug 9.0 20:39:37 10° NW 20:49:24 76° WSW 20:49:24 76° WSW visible
07 Aug 8.9 20:16:39 10° NW 20:26:40 82° SW 20:28:15 67° SSE visible
08 Aug 9.0 19:53:43 10° NW 20:03:44 89° SW 20:07:10 48° SE visible
08 Aug 11.0 22:02:56 10° W 22:05:24 15° WSW 22:05:24 15° WSW visible
09 Aug 9.0 19:30:47 10° NW 19:40:50 85° NE 19:46:07 32° SE visible
09 Aug 10.8 21:39:23 10° W 21:44:22 19° WSW 21:44:22 19° WSW visible
10 Aug 9.1 19:07:52 10° NW 19:17:55 79° NE 19:25:07 21° SE visible
10 Aug 10.6 21:15:55 10° W 21:23:08 21° SW 21:23:22 21° SW visible
